Location: Heilwood
(40.6210°N, 78.9150°W)
Time: 16:36:29
(UTC-04:00)

Daily predictions for brighter satellites

Satellite Brightness Start Highest point End
(mag) Time Altitude Azimuth Time Altitude Azimuth Time Altitude Azimuth
YAOGAN 11 4.2 21:15:03 10° SSE 21:19:21 86° WSW 21:23:47 10° NNW
COSMOS 2428 3.1 21:14:41 10° NNW 21:20:12 50° ENE 21:25:43 10° SE
Cosmos 1726 3.8 21:18:21 10° NNE 21:21:10 20° ENE 21:23:58 10° ESE
DELTA 2 R/B (1) 4.4 21:19:11 10° W 21:24:19 39° SSW 21:29:25 10° SE
Cosmos 1680 Rocket 3.6 21:22:12 10° NNW 21:27:29 86° WSW 21:32:45 10° SSE
Cosmos 1437 Rocket 3.6 21:25:01 10° NNW 21:28:43 50° W 21:32:28 10° S
Meteor 1-4 Rocket 4.4 21:27:13 10° NNE 21:29:48 18° ENE 21:32:21 10° ESE
Cosmos 2058 3.3 21:26:45 10° SSE 21:30:36 42° E 21:34:30 10° NNE
Cosmos 2151 2.9 21:27:13 10° S 21:31:24 76° E 21:35:37 10° N
Cosmos 405 3.8 21:33:00 10° NNW 21:36:33 54° W 21:40:04 10° S
NOSS 3-1 (A) 3.4 21:31:12 10° SSW 21:36:55 59° ESE 21:43:13 10° NE
Cosmos 1898 Rocket 3.8 21:33:35 10° S 21:38:30 46° ESE 21:43:27 10° NNE
H-2A R/B 4.1 21:36:17 10° E 21:39:01 14° ENE 21:41:47 10° NNE
Cosmos 2237 4.3 21:35:59 10° NNW 21:41:45 79° ENE 21:47:28 10° SSE
Delta 2 Rocket 3.8 21:38:43 10° WSW 21:42:12 34° S 21:44:58 13° SE
Cosmos 1437 3.4 21:40:49 10° SSW 21:44:03 58° W 21:47:18 10° N
Nadezhda 2 Rocket 4.4 21:38:06 10° S 21:44:12 75° E 21:50:18 10° N
ALOS 4.2 21:40:54 10° SSW 21:44:52 27° W 21:48:52 10° NW
Aureole 3 4.2 21:40:16 10° S 21:46:40 85° E 21:51:40 10° N
Cosmos 1939 Rocket 2.9 21:43:32 10° S 21:47:26 81° WSW 21:51:21 10° NNW
Cosmos 2219 3.5 21:43:00 10° SSW 21:48:45 75° WNW 21:54:31 10° NNE
Tiangong 1 1.1 21:45:43 10° W 21:48:50 79° NNW 21:51:56 10° ENE
Nimbus 7 Rocket 4.4 21:43:47 10° NNE 21:49:40 76° ESE 21:55:31 10° S
SPOT 1/Viking Rocket 4.3 21:46:52 12° SE 21:51:12 37° ENE 21:55:56 10° N
Cosmos 2237 Rocket 3.3 21:46:56 10° N 21:52:00 31° ENE 21:56:27 12° ESE
OAO 2 Rocket 3.9 21:49:04 10° WSW 21:54:03 42° S 21:59:04 10° ESE
Cosmos 2150 Rocket 4.1 21:49:13 10° S 21:54:36 68° ESE 22:00:03 10° NNE
Cosmos 2333 4.3 21:51:36 10° NNW 21:57:21 78° ENE 22:02:25 14° SSE
Cosmos 2082 4.4 21:53:22 10° SSE 21:58:25 33° ESE 22:03:28 10° NE
CZ-4 SHROUD 3.2 21:55:57 15° SSE 21:58:27 67° ENE 22:01:35 10° N
deb Chang Zheng 4 4.2 21:54:35 10° N 21:58:52 61° WNW 22:03:09 10° SSW
ATLAS 2AS CENTAUR R/B 3.4 21:52:31 10° S 21:59:11 38° ESE 22:06:20 10° NE
Sich 1 3.2 21:55:05 10° S 21:59:24 55° E 22:03:42 10° NNE
Cosmos 2360 Rocket 3.5 21:55:43 10° NW 22:00:52 36° WSW 22:05:58 10° S
Cosmos 1271 Rocket 3.3 21:59:22 10° N 22:03:02 41° ENE 22:05:32 18° SE
Cosmos 1626 3.8 22:02:07 16° ESE 22:03:18 18° E 22:05:53 10° NE
ERS-1 Rocket 4.2 22:01:51 10° SSW 22:06:33 39° W 22:11:17 10° NNW
Cosmos 1633 Rocket 3.0 22:02:53 10° S 22:07:12 64° E 22:11:32 10° NNE
YAOGAN 6 2.7 22:04:58 18° SSE 22:07:29 57° ENE 22:11:01 10° N
ATLAS 3B R/B 3.9 22:01:28 10° NNW 22:07:42 32° NE 22:13:27 10° ESE
ERBS 2.2 22:05:08 10° SW 22:08:37 69° SE 22:12:06 10° NE
Envisat 3.5 22:08:55 10° S 22:13:54 57° W 22:18:55 10° NNW
Cosmos 2242 Rocket 3.7 22:09:29 10° N 22:13:57 62° E 22:17:06 19° SSE
CZ-4 R/B 4.3 22:10:52 10° NNE 22:15:32 43° E 22:18:51 17° SSE
Cosmos 1703 3.4 22:14:44 18° SSE 22:17:30 55° E 22:21:20 10° NNE
CZ-4C R/B 4.4 22:16:15 19° ESE 22:17:36 24° ENE 22:20:28 10° NNE
SL-14 R/B 3.5 22:15:07 10° SSW 22:19:03 73° W 22:23:06 10° N
USA 245 2.1 22:21:00 43° SE 22:21:29 55° ENE 22:23:42 10° N
NOSS 3-1 (C) 4.3 22:16:11 10° SW 22:21:57 55° NW 22:28:23 10° NNE
Meteor 1-27 4.5 22:18:01 10° NNW 22:23:39 68° W 22:28:49 12° S
PSLV R/B 4.2 22:23:16 16° SSW 22:25:26 42° W 22:28:21 10° NNW
USA 32 4.0 22:23:33 10° N 22:28:50 76° E 22:32:31 20° S
Cosmos 220 Rocket 4.1 22:24:29 10° SSW 22:28:52 82° WNW 22:33:20 10° NNE
Cosmos 2227 Rocket 2.2 22:24:32 10° S 22:30:07 65° ESE 22:35:44 10° NNE
Cosmos 1937 Rocket 3.6 22:27:15 10° SSW 22:32:29 80° WNW 22:37:42 10° NNE
Cosmos 1300 4.0 22:28:55 10° NNW 22:32:30 38° W 22:35:46 12° SSW
Cosmos 990 Rocket 3.9 22:33:13 10° SSW 22:38:21 83° ESE 22:43:32 10° NNE
H-2A R/B 4.3 22:38:03 10° SW 22:41:31 21° W 22:45:00 10° NW
DELTA 2 DEB (DPAF) 4.3 22:41:00 30° SE 22:43:03 60° ENE 22:47:29 10° N
Cosmos 292 Rocket 4.2 22:38:27 10° NNW 22:43:06 55° WSW 22:46:00 22° S
SPOT 5 4.1 22:40:03 11° SSW 22:44:09 35° W 22:48:37 10° NNW
SL-16 R/B 3.0 22:42:31 10° N 22:47:49 38° ENE 22:50:40 24° ESE
ARGOS 3.2 22:44:45 23° S 22:48:12 79° WSW 22:53:37 10° NNW
CZ-4B R/B 3.9 22:43:42 10° N 22:48:55 65° WNW 22:54:00 10° SSW
H-2A R/B 4.5 22:44:44 10° SW 22:49:41 36° SSE 23:15:02 10° E
Cosmos 2333 Rocket 2.3 22:46:50 10° NNW 22:52:37 78° WSW 22:55:43 29° SSE
Cosmos 1455 2.1 22:50:53 10° N 22:54:43 81° E 22:55:49 45° SSE
OTV 4 1.7 22:53:00 10° WSW 22:54:46 29° SW 22:54:46 29° SW
Cosmos 1726 4.1 22:53:22 10° NW 22:56:30 25° W 22:59:13 12° SW
Cosmos 2297 Rocket 2.1 22:51:53 15° SSW 22:56:34 74° ESE 23:02:13 10° NNE
Cosmos 1346 3.5 22:57:45 40° SW 22:58:33 58° W 23:01:33 10° N
Cosmos 2219 Rocket 2.8 22:54:35 10° NW 22:59:59 50° WSW 23:03:07 24° S
Landsat 7 3.7 22:57:59 35° SSE 23:00:01 86° E 23:04:49 10° NNW
NOSS 2-3 (C) 4.4 23:00:19 36° SE 23:01:08 39° ESE 23:06:10 10° NE
Cosmos 1470 Rocket 3.8 22:59:12 22° SSW 23:01:52 64° W 23:06:10 10° N
Cosmos 1933 Rocket 3.9 23:00:00 22° SSW 23:02:46 66° W 23:07:13 10° N
Meteor 1-4 Rocket 4.4 23:01:53 10° NW 23:05:01 26° W 23:06:57 17° SW
Cosmos 44 Rocket 3.9 23:04:45 37° SE 23:05:31 39° ESE 23:10:23 10° NE
NOSS 0 Rocket 4.4 23:00:16 10° NNW 23:06:15 54° WSW 23:09:35 26° S
SL-08 RB Rocket 4.1 23:05:02 29° SSW 23:07:05 55° W 23:11:31 10° NNW
Cosmos 1703 Rocket 4.2 23:03:22 10° N 23:07:31 40° ENE 23:08:18 36° ESE
Lacrosse 4 Rocket 2.0 23:03:18 10° NNW 23:07:39 51° ENE 23:08:55 38° ESE
Nadezhda 1 Rocket 4.1 23:02:36 10° NNW 23:08:41 72° W 23:12:18 26° S
Cosmos 1269 Rocket 4.1 23:05:22 10° NNW 23:10:40 65° ENE 23:12:32 39° SE
Cosmos 1933 3.6 23:09:14 10° N 23:13:12 50° E 23:13:41 47° ESE
Terra 1.7 23:14:22 44° SSE 23:15:53 86° E 23:20:40 10° NNW
H-2A R/B 2.1 23:15:25 37° S 23:17:40 83° WSW 23:23:09 10° NNW
COSMOS 2455 2.8 23:13:24 10° NNW 23:19:28 79° ENE 23:21:50 39° SE
NOSS 2-3 (D) 4.0 23:21:10 46° SSE 23:22:18 57° ESE 23:27:41 10° NE
Cosmos 1980 4.4 23:19:06 10° NW 23:24:26 44° WSW 23:26:49 28° SSW
Tiangong 1 1.7 23:22:31 10° WNW 23:25:23 54° NNW 23:25:23 54° NNW
Cosmos 1125 Rocket 3.5 23:23:43 31° SSW 23:26:23 87° WNW 23:31:43 10° NNE
Cosmos 1048 Rocket 4.1 23:21:28 10° NNW 23:26:51 73° ENE 23:28:25 46° SE
Cosmos 1709 Rocket 3.9 23:27:42 34° S 23:30:33 90° E 23:36:42 10° N
Spot 4 3.8 23:29:25 51° S 23:30:41 87° WSW 23:35:35 10° NNW
Cosmos 2221 Rocket 3.6 23:26:19 10° N 23:30:52 71° E 23:31:33 59° SE
Cosmos 2237 Rocket 3.1 23:30:51 10° NW 23:36:06 39° WSW 23:38:17 28° SSW
Cosmos 372 Rocket 3.9 23:36:14 52° SSE 23:37:24 69° ESE 23:42:37 10° NNE
Cosmos 1900 4.4 23:32:48 10° NW 23:37:43 65° WSW 23:38:38 53° SSW
Cosmos 1869 4.5 23:34:34 10° NNW 23:38:19 36° W 23:39:14 32° WSW
Cosmos 1626 4.0 23:36:48 19° WSW 23:38:30 26° WNW 23:41:44 10° NNW
OAO 2 Rocket 3.9 23:33:30 10° WSW 23:38:02 42° SSW 23:38:02 42° SSW
Cosmos 389 Rocket 3.2 23:35:14 10° N 23:38:11 44° NE 23:38:11 44° NE
CARTOSAT-1 4.3 23:42:07 38° SW 23:42:59 43° W 23:47:06 10° NNW
Meteor 1-26 Rocket 4.2 23:39:22 10° N 23:45:01 71° E 23:46:26 51° SE
ATLAS 2AS CENTAUR R/B 3.7 23:42:35 10° SW 23:49:57 53° NW 23:57:52 10° NNE
IGS 5A 4.3 23:50:56 37° WSW 23:51:28 39° W 23:55:24 10° NNW
H-2A R/B 4.4 23:49:30 10° NE 23:51:48 20° ENE 23:51:48 20° ENE
